Regional Weather Roundup
Issued by NWS

Home | Current Version | Previous Version | Text Only | Print | Product List | Glossary On
Versions: 1 2 3 4 5 6 7 8 9 10 11 12 13 14 15 16 17 18 19 20 21 22 23 24 25 26 27 28 29 30 31 32 33 34 35 36 37 38 39 40 41 42 43 44 45 46 47 48 49 50
000
ASHW40 PHFO 160843
RWRHI

WEATHER ROUNDUP FOR HAWAII
NATIONAL WEATHER SERVICE HONOLULU HI
1000 PM HST TUE APR 15 2014

THIS IS AN AUTOMATED REPORT THAT HAS NOT BEEN QUALITY CONTROLLED.

NOTE..."FAIR" INDICATES FEW OR NO CLOUDS BELOW 12,000 FEET WITH NO
SIGNIFICANT WEATHER AND/OR OBSTRUCTIONS TO VISIBILITY.

* - THESE SITES REPORT LIMITED FIELDS

HIZ001>004-160900-
KAUAI-NIIHAU-

CITY           SKY/WX    TMP DP  RH WIND       PRES   REMARKS
LIHUE APT      CLOUDY    72  65  78 NE22      30.17R
PORT ALLEN*      N/A     72 N/A N/A NE12        N/A
POIPU*           N/A     72 N/A N/A NE9G22      N/A
PRINCEVILLE*   NOT AVBL
KOKOLE POINT*  NOT AVBL
MOLOAA DAIRY*  NOT AVBL
WAIMEA HTS*      N/A     70  54  56 W3          N/A
PUU OPAE*        N/A     63  54  72 NE2G12      N/A
PUU LUA*       NOT AVBL
MAKAHA RIDGE*    N/A     63  59  88 NE3         N/A
$$

HIZ005>011-160900-
OAHU-

CITY           SKY/WX    TMP DP  RH WIND       PRES   REMARKS
HONOLULU       LGT RAIN  74  63  68 NE10      30.12R
KALAELOA       CLEAR     69  65  86 VRB3      30.13R
KANEOHE MCB    PTCLDY    73  63  69 NE16G23   30.14R
WHEELER FIELD  RAIN      68  63  83 NE12      30.15R
BELLOWS*       NOT AVBL
KAHUKU*          N/A    N/A N/A N/A NE7G15      N/A
WHEELER*       NOT AVBL
WAIANAE HARBOR NOT AVBL
DILLINGHAM*    NOT AVBL
KAHUKU TRN*      N/A     70  68  94 E13G30      N/A
KAWAILOA*      NOT AVBL
KII*             N/A     73  64  73 NE18G26     N/A
MAKUA RANGE*     N/A     72  66  83 NE8G29      N/A
OAHU FOREST NW   N/A     63  63 100 N25G41      N/A
SCHOFIELD BRK* NOT AVBL
SCHOFIELD S*     N/A     64 N/A N/A CALM        N/A
WAIANAE VLY*     N/A    N/A N/A N/A W7G23       N/A
KUAOKALA*        N/A     68  63  83 NE17G29     N/A
HONOULIUULI*   NOT AVBL
MOKUOLOE IS*     N/A    N/A N/A N/A MISG        N/A
PALEHUA*         N/A     73  63  68 CALM        N/A
WAIAWA PHB*    NOT AVBL
$$

HIZ012>013-160900-
MOLOKAI-

CITY           SKY/WX    TMP DP  RH WIND       PRES   REMARKS
MOLOKAI AIRPT  LGT RAIN  69  68  96 NE17G25   30.12R
KALAUPAPA      NOT AVBL
MAKAPULAPAI*     N/A     72  64  78 E20G29      N/A
MOLOKAI 1*       N/A     61  57  88 E6G21       N/A
PUU ALII*        N/A     54  54  99 E3G18       N/A
$$

HIZ016-160900-
KAHOOLAWE-

CITY           SKY/WX    TMP DP  RH WIND       PRES   REMARKS
KAHOOLAWE*       N/A     66 N/A N/A NE14G30     N/A
HAKIOAWA*        N/A     68  65  89 MISG      30.22S
HONOKANAIA*      N/A     73  62  68 NE10G23   30.11R
KANELOA*       NOT AVBL
KEALIALALO*      N/A    N/A N/A N/A NE10G28   30.41
LUA MAKIKA*    NOT AVBL
$$

HIZ014>015-160900-
LANAI-

CITY           SKY/WX    TMP DP  RH WIND       PRES   REMARKS
LANAI CITY     FAIR      67  64  90 NE26G32   30.14R
LANAI 1*         N/A     66  66 100 NE20G32     N/A
$$

HIZ017>028-160900-
MAUI-

CITY           SKY/WX    TMP DP  RH WIND       PRES   REMARKS
KAHULUI        RAIN      71  66  84 E12G21    30.12R
KAPALUA-W MAUI NOT AVBL
HANA AIRPORT   NOT AVBL
HANA*            N/A     73 N/A N/A NE12G18     N/A
HALEAKALA SUMM   N/A     34  28  80 NE35G47     N/A  WCI  19
MAALAEA BAY*   NOT AVBL
HALEAKALA*     NOT AVBL
KAUPO GAP*       N/A     57  50  77 NE8G24      N/A
KULA 1*          N/A     46  43  87 CALM        N/A
$$

HIZ023>026-160900-
BIG ISLAND OF HAWAII COAST AND LOWER SLOPES-

CITY           SKY/WX    TMP DP  RH WIND       PRES   REMARKS
KAILUA KONA    PTCLDY    76  62  62 SE8       30.06R
HILO           LGT RAIN  67  66  97 W6        30.11R
HONOKAA*       NOT AVBL
KAWAIHAE MWT*    N/A     77 N/A N/A W6G15       N/A
KAWAIHAE*        N/A     77 N/A N/A E3          N/A
SOUTH POINT*     N/A     70 N/A N/A NE15G23     N/A
UPOLU AIRPORT*   N/A    N/A N/A N/A NE15G22     N/A
KAMUELA*       PTSUNNY   59  57  94 NE9       30.17R
HAKALAU*         N/A     48  48 100 E2          N/A
KALOKO-HONOKO*   N/A     73  63  68 E5        30.05R
PALI 2*          N/A     61  54  77 VRB18G32    N/A
KEALAKOMO*       N/A     73  59  60 VRB15G25    N/A
KAUPULEHU*       N/A     66  57  72 S6          N/A
KAPAPALA*        N/A     70  53  54 NE9G17      N/A
LOWER KAHUKU*  NOT AVBL
PUHE CS*       NOT AVBL
PUHO CS*         N/A     73  59  61 E2          N/A
PTA KEAMUKU*     N/A     59  57  94 S8          N/A
WAIKOLOA*        N/A     70  59  68 SE7G26      N/A
$$

HIZ027>028-160900-
BIG ISLAND OF HAWAII INTERIOR AND SUMMMITS-

CITY           SKY/WX    TMP DP  RH WIND       PRES   REMARKS
BRADSHAW FIELD CLEAR     51  46  84 E3        30.35R
MK VISITOR CEN NOT AVBL
MAUNA KEA*       N/A     28 -17  13 E41G53      N/A  WCI  11
MAUNA LOA*       N/A     39   1  20 MISG        N/A
MAUNA LOA 1*   NOT AVBL
PTA KIPUKA*      N/A     54  50  87 SE6G15      N/A
PTA RANGE 17*    N/A     55  48  76 E12G20      N/A
PTA WEST*        N/A     73  73 100 E3          N/A
NENE CABIN*    NOT AVBL
AHUMOA*          N/A     46  46 100 E5          N/A
PTA PORTABLE*  NOT AVBL
PUU MALI*      NOT AVBL
$$

HIC003-160900-
NORTHWEST ISLANDS-

CITY           SKY/WX    TMP DP  RH WIND       PRES   REMARKS
MIDWAY ISLAND  CLEAR     73  73 100 S8          N/A
MIDWAY NOS*    NOT AVBL
FRENCH FRIGATE NOT AVBL
$$

PHZ110>124-180-160900-
BUOY REPORTS

STATION/POSITION TIME  TEMP    WIND        PRES    WAVE   SWELL
                       AIR SEA DIR/SP/G            HT/PER HT/DIR
                 (UTC) (F)     (DEG/KT/KT) (MB)    (FT/S) (FT/D)
BUOY 51001       NOT AVBL
BUOY 51101       0800   72 74   60/ 16/ 17 1022.7R   6/ 9   5/ 90
BUOY 51100       0800   72 73   60/ 16/ 19 1021.4
BUOY 51003       0800   76 78   40/ 17/ 23 1018.4R   9/ 8
BUOY 51004       0800   77 77   60/ 17/ 21 1015.9R   8/ 8   3
BARBERS PT BUOY  NOT AVBL
WAIMEA BAY BUOY  0800      75                N/A     7/ 8   2/ 40
KAILUA BAY BUOY  0800      74                N/A    10/10   3/ 60
LANAI BUOY       0800      77                N/A     2/14   2/190
BARBERS PT 2     0800      76                N/A     3/13   2/170
PAUWELA MAUI     NOT AVBL
HILO             0800      77                N/A    10/10   5/ 50
KANEOHE BAY BUOY 0800      74                N/A     8/ 9   2/ 50
HANALEI KAUAI    0800      77                N/A     7/ 9   2/ 70
KAHULUI HARBOR   0800   72 76   90/  3/  8 1019.9R
HONOLULU HARBOR  0800   72      60/  8/ 13 1020.0R
KILO NALU        NOT AVBL
HILO HARBOR      0800   69 76  260/  4/  6 1019.2R
MOKUOLOE         0800   74 74   60/ 14/ 19 1020.9R
NAWILIWILI       0800      76                N/A
WHOTS BUOY       NOT AVBL
BUOY 51028       NOT AVBL
$$

......................KEY........................................
  SKY/WX - SKY CONDITIONS/PRESENT WEATHER
  TMP    - TEMPERATURE IN FAHRENHEIT
  DWPT   - DEWPOINT IN FAHRENHEIT
  RH     - RELATIVE HUMIDITY IN PERCENT
  WIND   - DIRECTION AND SPEED /MPH FOR ISLANDS...KTS FOR BUOYS/
  PRES   - MEAN SEA LEVEL PRESSURE IN INCHES OF HG
  VSB    - VISIBILITY IN MILES
  HX     - HEAT INDEX
  WCI    - WIND CHILL INDEX
  VRB    - VARIABLE WIND DIRECTION
  N/A    - NOT AVAILABLE



USA.gov is the U.S. government's official web portal to all federal, state and local government web resources and services.